DW1024 Weather Reports


time (UTC)temp
C
wind
direction
speed
KPH
gust
KPH
rain 1hr
cm
rain 24hr
cm
rain mn
cm
humidity
%
barometer
mb
20191016090606 14 203 1.6 9.7 0.00 0.28 0.18 63 1018.3
20191016090104 14 262 1.6 8.0 0.00 0.28 0.18 64 1018.3
20191016085557 14 294 1.6 14.5 0.00 0.28 0.18 65 1018.1
20191016085052 13 313 3.2 14.5 0.00 0.28 0.18 65 1018.2
20191016084552 13 313 3.2 9.7 0.00 0.28 0.18 66 1018.1
20191016084050 13 206 3.2 16.1 0.00 0.28 0.18 68 1017.9
20191016083550 13 320 1.6 11.3 0.00 0.28 0.18 69 1018.1
20191016083053 13 217 3.2 12.9 0.00 0.28 0.18 72 1017.8
20191016082550 12 239 3.2 12.9 0.00 0.28 0.18 72 1017.8
20191016082049 12 221 3.2 16.1 0.00 0.28 0.18 74 1017.7
20191016081544 12 254 3.2 16.1 0.00 0.28 0.18 75 1017.6
20191016081043 12 213 3.2 12.9 0.00 0.28 0.18 77 1017.6
20191016080545 11 205 3.2 12.9 0.00 0.28 0.18 80 1017.4
20191016080045 11 201 3.2 11.3 0.00 0.28 0.18 82 1017.4
20191016075541 10 253 1.6 11.3 0.00 0.28 0.18 84 1017.3
20191016075043 10 260 1.6 9.7 0.00 0.28 0.18 85 1017.3
20191016074544 10 220 3.2 12.9 0.00 0.28 0.18 86 1017.2
20191016074039 10 265 3.2 12.9 0.00 0.28 0.18 87 1017.1
20191016073542 9 337 3.2 14.5 0.00 0.28 0.18 87 1017.1
20191016073037 9 211 1.6 12.9 0.00 0.28 0.18 88 1017.1
20191016072538 9 201 1.6 11.3 0.00 0.28 0.18 88 1016.8
20191016072035 9 258 1.6 11.3 0.00 0.28 0.18 89 1016.8
20191016071540 8 201 1.6 9.7 0.00 0.28 0.18 89 1016.8
20191016071036 8 188 1.6 9.7 0.00 0.28 0.18 90 1016.6
20191016070519 8 195 1.6 8.0 0.00 0.28 0.18 90 1016.5
20191016070010 8 198 1.6 9.7 0.00 0.28 0.18 90 1016.5
20191016065504 8 204 1.6 6.4 0.00 0.28 0.18 90 1016.6
20191016065014 8 211 0.0 4.8 0.00 0.28 0.18 90 1016.5
20191016064515 8 198 1.6 6.4 0.00 0.28 0.18 90 1016.3
20191016064013 8 325 1.6 6.4 0.00 0.28 0.18 91 1016.3
20191016063504 8 242 0.0 6.4 0.00 0.28 0.18 91 1016.3
20191016063001 8 195 1.6 6.4 0.00 0.28 0.18 91 1016.2
20191016062500 8 212 1.6 6.4 0.00 0.28 0.18 90 1016.1
20191016062001 8 208 0.0 6.4 0.00 0.28 0.18 90 1016.1
20191016061505 8 185 0.0 6.4 0.00 0.28 0.18 90 1015.9
20191016061001 8 177 0.0 3.2 0.00 0.28 0.18 90 1015.9
20191016060500 8 176 0.0 1.6 0.00 0.28 0.18 90 1015.8
20191016055958 8 176 0.0 1.6 0.00 0.28 0.18 90 1015.8
20191016055541 8 175 0.0 3.2 0.00 0.28 0.18 90 1017.4
20191016054955 8 175 0.0 1.6 0.00 0.28 0.18 90 1015.8
20191016054448 8 204 0.0 6.4 0.00 0.28 0.18 90 1015.7
20191016053936 8 203 1.6 6.4 0.00 0.28 0.18 90 1015.7
20191016053436 8 200 1.6 8.0 0.00 0.28 0.18 90 1015.7
20191016052931 8 186 1.6 8.0 0.00 0.28 0.18 90 1015.6
20191016052434 8 221 1.6 12.9 0.00 0.28 0.18 90 1015.4
20191016051930 8 203 1.6 12.9 0.00 0.28 0.18 91 1015.4
20191016051432 8 203 1.6 8.0 0.00 0.28 0.18 91 1015.4
20191016050926 8 202 1.6 8.0 0.00 0.28 0.18 91 1015.4
20191016050425 8 198 1.6 8.0 0.00 0.28 0.18 91 1015.4
20191016045907 8 192 1.6 8.0 0.00 0.28 0.18 91 1015.4
20191016045414 8 171 0.0 8.0 0.00 0.28 0.18 91 1015.4
20191016044907 8 269 0.0 3.2 0.00 0.28 0.18 91 1015.3
20191016044405 8 207 1.6 8.0 0.00 0.28 0.18 91 1015.3
20191016043844 8 217 1.6 12.9 0.00 0.28 0.18 91 1015.3
20191016043342 8 210 0.0 6.4 0.00 0.28 0.18 91 1015.2
20191016042844 8 206 1.6 6.4 0.00 0.28 0.18 91 1015.1
20191016042339 8 186 1.6 4.8 0.00 0.28 0.18 91 1015.2
20191016041834 8 216 0.0 8.0 0.00 0.28 0.18 91 1015.3
20191016041336 8 209 1.6 9.7 0.00 0.28 0.18 91 1015.3
20191016040834 8 211 1.6 9.7 0.00 0.28 0.18 91 1015.3
20191016040331 8 205 1.6 4.8 0.00 0.28 0.18 91 1015.4
20191016035830 8 201 0.0 6.4 0.00 0.28 0.18 91 1015.2
20191016035332 9 190 0.0 8.0 0.00 0.28 0.18 91 1015.2
20191016034831 9 205 0.0 8.0 0.00 0.28 0.18 91 1015.1
20191016034331 9 263 0.0 6.4 0.00 0.28 0.18 91 1015.1
20191016033832 9 288 0.0 4.8 0.00 0.28 0.18 91 1015.0
20191016033332 9 200 1.6 6.4 0.00 0.28 0.18 92 1014.8
20191016032832 9 305 0.0 6.4 0.00 0.28 0.18 92 1014.8
20191016032331 9 202 0.0 4.8 0.00 0.28 0.18 92 1014.9
20191016031831 9 202 1.6 6.4 0.00 0.28 0.18 92 1015.0
20191016031331 9 203 1.6 6.4 0.00 0.28 0.18 92 1015.0
20191016030832 9 264 1.6 8.0 0.00 0.28 0.18 92 1015.0
20191016030333 9 205 1.6 8.0 0.00 0.28 0.18 92 1015.0
20191016025824 9 215 1.6 11.3 0.00 0.28 0.18 92 1015.0
20191016025326 9 214 1.6 4.8 0.00 0.28 0.18 92 1015.0
20191016024827 9 192 1.6 8.0 0.00 0.28 0.18 92 1014.9
20191016024308 9 225 1.6 8.0 0.00 0.28 0.18 92 1015.0
20191016023805 9 223 1.6 6.4 0.00 0.28 0.18 92 1014.9
20191016023304 9 244 1.6 11.3 0.00 0.28 0.18 92 1014.9
20191016022807 9 296 1.6 11.3 0.00 0.28 0.18 92 1014.9
20191016022252 9 298 1.6 11.3 0.00 0.28 0.18 92 1014.9
20191016021751 9 215 1.6 11.3 0.00 0.28 0.18 92 1014.9
20191016021251 9 241 1.6 12.9 0.00 0.28 0.18 92 1014.8
20191016020751 9 219 3.2 12.9 0.00 0.28 0.18 92 1014.8
20191016020246 9 198 3.2 14.5 0.00 0.28 0.18 92 1014.8
20191016015743 9 198 3.2 12.9 0.00 0.28 0.18 92 1014.8
20191016015248 9 218 3.2 9.7 0.00 0.28 0.18 92 1014.7
20191016014743 9 284 3.2 16.1 0.00 0.28 0.18 92 1014.6
20191016014243 9 210 1.6 11.3 0.00 0.28 0.18 92 1014.5
20191016013744 9 188 3.2 11.3 0.00 0.28 0.18 92 1014.2
20191016013254 9 327 3.2 14.5 0.00 0.28 0.18 92 1014.2
20191016012745 9 283 3.2 14.5 0.00 0.28 0.18 92 1014.0
20191016012250 9 181 3.2 12.9 0.00 0.28 0.18 92 1013.7
20191016011747 9 194 3.2 12.9 0.00 0.28 0.18 92 1013.9
20191016011242 9 213 3.2 11.3 0.00 0.28 0.18 92 1014.0
20191016010738 9 260 3.2 12.9 0.00 0.28 0.18 92 1013.9
20191016010239 9 258 3.2 16.1 0.00 0.28 0.18 92 1013.9
20191016005735 9 194 3.2 16.1 0.00 0.28 0.18 92 1014.0
20191016005235 9 212 3.2 14.5 0.00 0.28 0.18 92 1013.9
20191016004730 9 199 3.2 14.5 0.00 0.28 0.18 92 1014.0
20191016004238 9 205 3.2 14.5 0.00 0.28 0.18 93 1014.2
20191016003732 9 230 3.2 14.5 0.00 0.28 0.18 93 1014.2
20191016003236 9 225 3.2 11.3 0.00 0.28 0.18 93 1014.0
20191016002730 9 182 1.6 11.3 0.03 0.28 0.18 93 1013.9
20191016002243 9 195 3.2 14.5 0.03 0.28 0.18 93 1014.0
20191016001738 10 240 3.2 14.5 0.05 0.28 0.18 92 1013.9
20191016001236 10 327 3.2 11.3 0.05 0.28 0.18 92 1013.9
20191016000727 10 216 1.6 11.3 0.08 0.28 0.18 92 1013.7
20191016000239 10 288 1.6 0.0 0.00 0.00 0.00 92 1013.6
20191015235733 10 212 1.6 8.0 0.10 0.28 0.28 92 1013.7
20191015235237 10 212 1.6 8.0 0.13 0.28 0.28 92 1013.7
20191015234731 10 207 1.6 12.9 0.15 0.28 0.28 92 1013.6
20191015234230 10 205 1.6 12.9 0.18 0.28 0.28 92 1013.6
20191015233729 10 201 1.6 11.3 0.20 0.28 0.28 92 1013.6
20191015233232 10 202 1.6 11.3 0.23 0.28 0.28 92 1013.5
20191015232736 10 203 1.6 9.7 0.23 0.25 0.25 91 1013.6
20191015232227 10 227 1.6 6.4 0.20 0.23 0.23 91 1013.6
20191015231726 10 206 1.6 14.5 0.20 0.23 0.23 91 1013.6
20191015231223 10 188 1.6 9.7 0.20 0.23 0.23 91 1013.5
20191015230721 10 279 1.6 8.0 0.20 0.20 0.20 90 1013.4
20191015230217 10 192 1.6 11.3 0.18 0.18 0.18 90 1013.3
20191015225716 10 251 1.6 11.3 0.18 0.18 0.18 90 1013.2
20191015225216 10 195 1.6 11.3 0.13 0.13 0.13 89 1013.2
20191015224714 11 190 0.0 6.4 0.13 0.13 0.13 89 1013.0
20191015224220 11 188 1.6 8.0 0.08 0.08 0.08 88 1013.1
20191015223713 11 215 1.6 8.0 0.08 0.08 0.08 88 1013.2
20191015223205 11 314 1.6 12.9 0.05 0.05 0.05 88 1013.1
20191015222654 11 293 1.6 14.5 0.03 0.03 0.03 87 1013.1
20191015222156 11 194 1.6 14.5 0.03 0.03 0.03 86 1013.0
20191015221650 11 179 1.6 8.0 0.03 0.03 0.03 86 1012.9
20191015221149 11 304 1.6 12.9 0.03 0.03 0.03 85 1012.9
20191015220651 11 213 3.2 12.9 0.00 0.00 0.00 85 1012.8
20191015220148 12 176 3.2 14.5 0.00 0.00 0.00 84 1012.7
20191015215647 12 192 3.2 14.5 0.00 0.00 0.00 84 1012.5
20191015215148 12 201 4.8 12.9 0.00 0.00 0.00 84 1012.4
20191015214646 12 309 3.2 16.1 0.00 0.00 0.00 84 1012.4
20191015214149 12 269 3.2 16.1 0.00 0.00 0.00 85 1012.6
20191015213646 12 209 3.2 16.1 0.00 0.00 0.00 85 1012.4
20191015213143 13 221 1.6 8.0 0.00 0.00 0.00 85 1012.4
20191015212643 13 217 3.2 9.7 0.00 0.00 0.00 84 1012.2
20191015212132 13 204 3.2 11.3 0.00 0.00 0.00 83 1012.2
20191015211630 13 295 3.2 12.9 0.00 0.00 0.00 83 1012.0
20191015211135 13 312 3.2 19.3 0.00 0.00 0.00 83 1012.0
20191015210632 13 300 4.8 19.3 0.00 0.00 0.00 83 1011.9
20191015210125 13 318 3.2 16.1 0.00 0.00 0.00 83 1011.9
20191015205626 13 306 3.2 14.5 0.00 0.00 0.00 83 1011.8
20191015205125 14 199 3.2 14.5 0.00 0.00 0.00 84 1011.9
20191015204629 14 294 3.2 11.3 0.00 0.00 0.00 84 1011.8
20191015204127 14 290 3.2 12.9 0.00 0.00 0.00 84 1011.7
20191015203622 14 294 3.2 14.5 0.00 0.00 0.00 84 1011.7
20191015203123 14 241 3.2 16.1 0.00 0.00 0.00 84 1011.5
20191015202618 14 216 1.6 16.1 0.00 0.00 0.00 84 1011.3
20191015202118 15 213 1.6 8.0 0.00 0.00 0.00 84 1011.3
20191015201604 15 251 1.6 9.7 0.00 0.00 0.00 84 1011.1
20191015201104 15 217 1.6 4.8 0.00 0.00 0.00 84 1011.0
20191015200611 15 298 0.0 4.8 0.00 0.00 0.00 84 1010.9
20191015200106 15 221 1.6 4.8 0.00 0.00 0.00 84 1010.7
20191015195606 15 287 0.0 4.8 0.00 0.00 0.00 84 1010.7
20191015195105 15 316 0.0 8.0 0.00 0.00 0.00 83 1010.7
20191015194603 15 307 0.0 8.0 0.00 0.00 0.00 83 1010.6
20191015194104 15 338 0.0 8.0 0.00 0.00 0.00 83 1010.4
20191015193602 15 286 0.0 4.8 0.00 0.00 0.00 83 1010.3
20191015193103 15 211 0.0 6.4 0.00 0.00 0.00 83 1010.1
20191015192603 15 163 0.0 3.2 0.00 0.00 0.00 82 1010.1
20191015192103 15 257 0.0 3.2 0.00 0.00 0.00 82 1010.0
20191015191609 15 217 0.0 4.8 0.00 0.00 0.00 82 1009.9
20191015191104 15 326 0.0 4.8 0.00 0.00 0.00 82 1009.9
20191015190552 15 219 0.0 6.4 0.00 0.00 0.00 81 1009.9
20191015190056 15 182 1.6 9.7 0.00 0.00 0.00 81 1009.9
20191015185545 15 311 1.6 9.7 0.00 0.00 0.00 81 1009.7
20191015185041 15 308 1.6 8.0 0.00 0.00 0.00 81 1009.6
20191015184809 15 267 1.6 11.3 0.00 0.00 0.00 81 1009.6
20191015184541 15 267 1.6 11.3 0.00 0.00 0.00 81 1009.6
20191015184215 15 240 0.0 8.0 0.00 0.00 0.00 81 1009.5
20191015183544 15 311 1.6 8.0 0.00 0.00 0.00 81 1009.5
20191015183040 15 332 1.6 14.5 0.00 0.00 0.00 81 1009.4
20191015182537 15 285 1.6 14.5 0.00 0.00 0.00 81 1009.3
20191015182039 15 201 1.6 8.0 0.00 0.00 0.00 81 1009.3
20191015181533 15 313 1.6 12.9 0.00 0.00 0.00 81 1009.3
20191015181041 15 213 1.6 12.9 0.00 0.00 0.00 81 1009.3
20191015180534 15 207 1.6 8.0 0.00 0.00 0.00 80 1009.1
20191015180030 15 248 1.6 8.0 0.00 0.00 0.00 80 1009.1
20191015175532 15 175 1.6 8.0 0.00 0.00 0.00 80 1008.9
20191015175022 15 314 1.6 9.7 0.00 0.00 0.00 79 1008.9
20191015174519 15 295 1.6 16.1 0.00 0.00 0.00 78 1008.7
20191015174019 15 298 1.6 16.1 0.00 0.00 0.00 78 1008.7
20191015173522 15 11 1.6 8.0 0.00 0.00 0.00 77 1008.6
20191015173015 16 205 1.6 9.7 0.00 0.00 0.00 76 1008.5
20191015172505 16 209 1.6 9.7 0.00 0.00 0.00 76 1008.5
20191015172014 16 248 1.6 8.0 0.00 0.00 0.00 75 1008.6
20191015171504 16 234 1.6 8.0 0.00 0.00 0.00 74 1008.5
20191015171000 16 259 1.6 11.3 0.00 0.00 0.00 73 1008.6
20191015170459 16 313 1.6 12.9 0.00 0.00 0.00 73 1008.5
20191015170007 17 219 1.6 12.9 0.00 0.00 0.00 72 1008.5
20191015165459 17 191 1.6 8.0 0.00 0.00 0.00 72 1008.3
20191015164955 17 256 1.6 11.3 0.00 0.00 0.00 72 1008.1
20191015164453 18 245 1.6 11.3 0.00 0.00 0.00 74 1007.9
20191015163953 18 293 1.6 6.4 0.00 0.00 0.00 76 1007.6
20191015163454 18 313 0.0 8.0 0.00 0.00 0.00 76 1007.5
20191015162950 18 311 0.0 8.0 0.00 0.00 0.00 76 1007.3
20191015162449 18 323 0.0 4.8 0.00 0.00 0.00 75 1007.2
20191015161945 18 324 0.0 4.8 0.00 0.00 0.00 74 1007.3
20191015161446 19 205 0.0 0.0 0.00 0.00 0.00 73 1007.1
20191015160936 20 205 0.0 0.0 0.00 0.00 0.00 71 1006.9
20191015160438 20 205 0.0 0.0 0.00 0.00 0.00 70 1006.8
20191015155936 20 205 0.0 1.6 0.00 0.00 0.00 69 1006.6
20191015155431 20 205 0.0 1.6 0.00 0.00 0.00 69 1006.8
20191015154931 20 205 0.0 0.0 0.00 0.00 0.00 67 1006.8
20191015154433 21 205 0.0 1.6 0.00 0.00 0.00 67 1006.9
20191015153934 21 205 0.0 1.6 0.00 0.00 0.00 66 1007.0
20191015153430 21 205 0.0 1.6 0.00 0.00 0.00 66 1006.8
20191015152930 21 204 0.0 0.0 0.00 0.00 0.00 65 1006.9
20191015152424 21 204 0.0 0.0 0.00 0.00 0.00 66 1007.0
20191015151914 21 204 0.0 1.6 0.00 0.00 0.00 65 1007.2
20191015151417 21 204 0.0 1.6 0.00 0.00 0.00 63 1007.2
20191015150848 21 204 0.0 1.6 0.00 0.00 0.00 63 1007.1
20191015150348 21 198 0.0 0.0 0.00 0.00 0.00 63 1007.0
20191015145842 21 198 0.0 0.0 0.00 0.00 0.00 61 1006.9
20191015145334 21 198 0.0 1.6 0.00 0.00 0.00 60 1007.0
20191015144824 22 198 0.0 1.6 0.00 0.00 0.00 58 1007.1
20191015144307 22 198 0.0 3.2 0.00 0.00 0.00 57 1007.3
20191015143812 22 208 0.0 3.2 0.00 0.00 0.00 56 1007.2
20191015143306 22 207 0.0 3.2 0.00 0.00 0.00 54 1007.3
20191015142804 23 205 0.0 3.2 0.00 0.00 0.00 55 1007.4
20191015142304 23 206 0.0 1.6 0.00 0.00 0.00 53 1007.4
20191015141758 23 169 0.0 6.4 0.00 0.00 0.00 54 1007.5
20191015141251 23 159 0.0 6.4 0.00 0.00 0.00 52 1007.6
20191015140744 23 191 0.0 3.2 0.00 0.00 0.00 52 1007.7
20191015140244 23 147 0.0 3.2 0.00 0.00 0.00 52 1007.6
20191015135744 23 157 0.0 1.6 0.00 0.00 0.00 50 1007.6
20191015135237 23 157 0.0 4.8 0.00 0.00 0.00 51 1007.8
20191015134738 23 202 0.0 4.8 0.00 0.00 0.00 49 1007.9
20191015134238 23 231 1.6 8.0 0.00 0.00 0.00 48 1007.8
20191015133753 23 233 1.6 8.0 0.00 0.00 0.00 48 1007.8
20191015133237 23 288 0.0 6.4 0.00 0.00 0.00 48 1007.7
20191015132731 23 306 0.0 6.4 0.00 0.00 0.00 49 1007.8
20191015132231 23 346 0.0 4.8 0.00 0.00 0.00 49 1007.9
20191015131732 23 218 0.0 6.4 0.00 0.00 0.00 49 1007.9
20191015131232 23 355 0.0 3.2 0.00 0.00 0.00 48 1007.9
20191015130732 24 193 0.0 3.2 0.00 0.00 0.00 48 1008.0
20191015130231 24 207 0.0 3.2 0.00 0.00 0.00 49 1008.3
20191015125734 23 207 0.0 4.8 0.00 0.00 0.00 49 1008.4
20191015125224 24 207 1.6 6.4 0.00 0.00 0.00 48 1008.5
20191015124721 24 188 1.6 6.4 0.00 0.00 0.00 49 1008.6
20191015124218 24 176 1.6 4.8 0.00 0.00 0.00 48 1008.6
20191015123717 23 0 0.0 3.2 0.00 0.00 0.00 49 1008.5
20191015123208 23 229 0.0 3.2 0.00 0.00 0.00 49 1008.6
20191015122704 23 239 0.0 3.2 0.00 0.00 0.00 49 1008.7
20191015122212 23 229 0.0 4.8 0.00 0.00 0.00 48 1008.7
20191015122044 23 235 0.0 3.2 0.00 0.00 0.00 48 1008.8
20191015121142 24 195 0.0 3.2 0.00 0.00 0.00 47 1008.9
20191015120652 24 195 0.0 3.2 0.00 0.00 0.00 49 1008.8
20191015120136 23 165 0.0 3.2 0.00 0.00 0.00 48 1008.9
20191015115633 24 149 0.0 4.8 0.00 0.00 0.00 48 1009.0
20191015115130 24 128 0.0 4.8 0.00 0.00 0.00 49 1009.0
20191015114639 24 216 0.0 1.6 0.00 0.00 0.00 48 1009.2
20191015114131 24 217 0.0 1.6 0.00 0.00 0.00 48 1009.2
20191015113632 24 217 0.0 4.8 0.00 0.00 0.00 47 1009.2
20191015113132 23 217 0.0 4.8 0.00 0.00 0.00 47 1009.3
20191015112626 24 196 0.0 4.8 0.00 0.00 0.00 47 1009.3
20191015112129 24 167 0.0 4.8 0.00 0.00 0.00 50 1009.5
20191015111626 24 187 0.0 6.4 0.00 0.00 0.00 48 1009.6
20191015111127 23 181 0.0 6.4 0.00 0.00 0.00 49 1009.6
20191015110617 23 92 0.0 1.6 0.00 0.00 0.00 47 1009.7
20191015110114 23 92 0.0 3.2 0.00 0.00 0.00 48 1009.6
20191015105611 23 76 0.0 3.2 0.00 0.00 0.00 46 1009.6
20191015105104 23 58 0.0 1.6 0.00 0.00 0.00 48 1009.5
20191015104614 23 112 0.0 1.6 0.00 0.00 0.00 49 1009.8
20191015104106 23 113 0.0 1.6 0.00 0.00 0.00 48 1009.8
20191015103613 23 110 0.0 6.4 0.00 0.00 0.00 47 1009.8
20191015103111 23 209 1.6 4.8 0.00 0.00 0.00 48 1009.7
20191015102608 23 34 0.0 6.4 0.00 0.00 0.00 49 1009.8
20191015102104 23 160 0.0 3.2 0.00 0.00 0.00 50 1010.0
20191015101607 23 243 0.0 3.2 0.00 0.00 0.00 48 1010.0
20191015101104 23 242 0.0 3.2 0.00 0.00 0.00 51 1009.9
20191015100606 23 186 0.0 1.6 0.00 0.00 0.00 51 1010.1
20191015100056 23 184 0.0 3.2 0.00 0.00 0.00 53 1010.3
20191015095541 22 184 0.0 3.2 0.00 0.00 0.00 52 1010.5
20191015095032 22 175 0.0 3.2 0.00 0.00 0.00 54 1010.3
20191015094523 22 82 0.0 1.6 0.00 0.00 0.00 53 1010.4
20191015094026 22 82 0.0 1.6 0.00 0.00 0.00 56 1010.6
20191015093511 22 63 0.0 1.6 0.00 0.00 0.00 56 1010.6
20191015093010 22 63 0.0 4.8 0.00 0.00 0.00 55 1010.6
20191015092508 21 63 0.0 4.8 0.00 0.00 0.00 54 1010.8
20191015092007 21 170 0.0 1.6 0.00 0.00 0.00 57 1010.7
20191015091514 21 170 0.0 1.6 0.00 0.00 0.00 57 1010.9
20191015091005 21 170 0.0 4.8 0.00 0.00 0.00 58 1010.8